This is the latest recevied weather packets stored in our database for station/object KB3MVG-13. If no packets are shown the sender has not sent any weather packets the latest 10 day(s).
| Time | Temp. | Humidity | Pressure | Rain* | Wind** | Luminosity | Snow |
|---|---|---|---|---|---|---|---|
| 1777903816 | 15° C | 21% | 1014.3 hPa | 0 mm | - | 218 W/m² | - |
| 1777899616 | 13.33° C | 21% | 1014 hPa | 0 mm | - | 44 W/m² | - |
| 1777899016 | 13.33° C | 21% | 1013.8 hPa | 0 mm | - | 33 W/m² | - |
| 1777896616 | 13.33° C | 21% | 1013.6 hPa | 0 mm | - | 5 W/m² | - |
| 1777893016 | 12.22° C | 24% | 1014.5 hPa | 0 mm | - | 0 W/m² | - |
| 1777891216 | 11.67° C | 25% | 1014.2 hPa | 0 mm | - | 0 W/m² | - |
| 1777889416 | 11.11° C | 25% | 1014.4 hPa | 0 mm | - | 0 W/m² | - |
| 1777888216 | 11.67° C | 25% | 1014.9 hPa | 0 mm | - | 0 W/m² | - |
| 1777885816 | 11.11° C | 27% | 1015.1 hPa | 0 mm | - | 0 W/m² | - |
| 1777881016 | 12.78° C | 26% | 1016 hPa | 0 mm | - | 0 W/m² | - |
| 1777880456 | 12.78° C | 26% | 1016 hPa | 0 mm | - | 0 W/m² | - |
| 1777879236 | 13.89° C | 24% | 1016.4 hPa | 0 mm | - | 0 W/m² | - |
| 1777876216 | 14.44° C | 23% | 1016.4 hPa | 0 mm | - | 0 W/m² | - |
| 1777875016 | 15.56° C | 21% | 1016.4 hPa | 0 mm | - | 0 W/m² | - |
| 1777874416 | 15.56° C | 21% | 1016.5 hPa | 0 mm | - | 0 W/m² | - |
| 1777873815 | 15.56° C | 21% | 1016.6 hPa | 0 mm | - | 0 W/m² | - |
| 1777872615 | 15° C | 22% | 1016.4 hPa | 0 mm | - | 0 W/m² | - |
| 1777870815 | 15.56° C | 22% | 1016.8 hPa | 0 mm | - | 0 W/m² | - |
| 1777867215 | 16.67° C | 22% | 1017.2 hPa | 0 mm | - | 0 W/m² | - |
| 1777863615 | 16.67° C | 22% | 1016.9 hPa | 0 mm | - | 0 W/m² | - |
| 1777863015 | 16.67° C | 22% | 1016.9 hPa | 0 mm | - | 0 W/m² | - |
| 1777862415 | 17.22° C | 21% | 1016.9 hPa | 0 mm | - | 0 W/m² | - |
| 1777860015 | 17.22° C | 22% | 1016.3 hPa | 0 mm | - | 0 W/m² | - |
| 1777859455 | 17.22° C | 22% | 1016.1 hPa | 0 mm | - | 2 W/m² | - |
| 1777853417 | 18.33° C | 19% | 1015.6 hPa | 0 mm | - | 75 W/m² | - |
* Rain latest hour (hover to see other rain measurements)
** Current wind speed in m/s (hover to see current wind gust speed)